FW1358 Weather Reports


Display with metric or nautical units.
time (UTC)temp
F
wind
direction
speed
MPH
gust
MPH
rain 1hr
in
rain 24hr
in
rain mn
in
humidity
%
barometer
mb
20260503002305 52 224 0.0 0.0 0.00 0.04 0.04 84 1018.1
20260503001803 52 224 0.0 0.0 0.00 0.04 0.04 84 1018.0
20260503001304 52 224 0.0 0.0 0.01 0.04 0.04 84 1018.0
20260502235305 53 224 0.0 0.0 0.01 0.04 0.04 82 1017.6
20260502233803 53 224 0.0 0.0 0.01 0.04 0.04 81 1017.6
20260502233304 54 224 0.0 0.0 0.01 0.04 0.04 79 1017.7
20260502231803 55 224 0.0 1.0 0.01 0.04 0.04 75 1017.5
20260502230803 56 51 0.0 3.0 0.00 0.03 0.03 72 1017.4
20260502224803 57 50 0.0 0.0 0.01 0.03 0.03 74 1016.6
20260502224303 57 50 0.0 0.0 0.02 0.03 0.03 74 1016.5
20260502223303 57 50 0.0 0.0 0.03 0.03 0.03 70 1016.4
20260502222305 57 50 0.0 0.0 0.03 0.03 0.03 72 1016.3
20260502220803 58 50 0.0 0.0 0.03 0.03 0.03 71 1016.4
20260502220303 58 50 0.0 0.0 0.03 0.03 0.03 72 1016.3
20260502214303 63 188 0.0 0.0 0.01 0.01 0.01 49 1016.2
20260502212803 65 188 0.0 0.0 0.00 0.00 0.00 41 1015.5
20260502211804 65 188 0.0 0.0 0.00 0.00 0.00 41 1015.4
20260502210803 66 188 0.0 0.0 0.00 0.00 0.00 40 1015.5
20260502210303 66 188 0.0 0.0 0.00 0.00 0.00 36 1015.5
20260502205803 66 188 0.0 0.0 0.00 0.00 0.00 37 1015.5
20260502204303 66 188 0.0 0.0 0.00 0.00 0.00 42 1015.6
20260502203303 66 188 0.0 0.0 0.00 0.00 0.00 38 1015.8
20260502202803 66 188 0.0 0.0 0.00 0.00 0.00 35 1015.9
20260502201303 67 188 0.0 0.0 0.00 0.00 0.00 40 1016.0
20260502200803 67 188 0.0 0.0 0.00 0.00 0.00 38 1016.0
20260502200303 67 188 0.0 0.0 0.00 0.00 0.00 40 1016.1
20260502194803 68 188 0.0 2.0 0.00 0.00 0.00 38 1016.4
20260502194303 68 188 0.0 2.0 0.00 0.00 0.00 43 1016.3
20260502192305 68 248 0.0 0.0 0.00 0.00 0.00 38 1016.4
20260502191803 68 248 0.0 0.0 0.00 0.00 0.00 36 1016.4
20260502191304 68 248 0.0 0.0 0.00 0.00 0.00 38 1016.4
20260502190804 67 248 0.0 0.0 0.00 0.00 0.00 36 1016.5
20260502183803 70 32 0.0 1.0 0.00 0.00 0.00 35 1016.4
20260502183303 69 32 0.0 1.0 0.00 0.00 0.00 40 1016.6
20260502181803 68 43 0.0 0.0 0.00 0.00 0.00 38 1016.7
20260502181303 67 43 0.0 0.0 0.00 0.00 0.00 38 1016.6
20260502162804 65 279 0.0 1.0 0.00 0.00 0.00 39 1017.5
20260502162304 65 279 0.0 1.0 0.00 0.00 0.00 38 1017.4
20260502161803 65 237 0.0 1.0 0.00 0.00 0.00 38 1017.4
20260502161303 65 236 0.0 0.0 0.00 0.00 0.00 41 1017.4
20260502160803 65 236 0.0 0.0 0.00 0.00 0.00 41 1017.5
20260502152305 62 291 0.0 1.0 0.00 0.00 0.00 44 1017.6
20260502151803 62 0 0.0 0.0 0.00 0.00 0.00 41 1017.5
20260502150803 61 0 0.0 0.0 0.00 0.00 0.00 43 1017.6
20260502122306 46 33 0.0 0.0 0.00 0.00 0.00 79 1017.1
20260502121304 46 33 0.0 0.0 0.00 0.00 0.00 78 1017.0
20260502120303 46 33 0.0 0.0 0.00 0.00 0.00 79 1016.9
20260502114803 46 33 0.0 0.0 0.00 0.00 0.00 77 1016.9
20260502114303 46 33 0.0 0.0 0.00 0.00 0.00 78 1016.8
20260502113803 46 33 0.0 0.0 0.00 0.00 0.00 78 1016.8
20260502113304 46 33 0.0 0.0 0.00 0.00 0.00 77 1016.7
20260502112803 46 33 0.0 0.0 0.00 0.00 0.00 78 1016.7
20260502111303 46 33 0.0 0.0 0.00 0.00 0.00 77 1016.4
20260502110804 46 33 0.0 0.0 0.00 0.00 0.00 76 1016.4
20260502110303 46 33 0.0 0.0 0.00 0.00 0.00 76 1016.3
20260502105306 47 33 0.0 0.0 0.00 0.00 0.00 75 1016.2
20260502104303 47 33 0.0 0.0 0.00 0.00 0.00 74 1016.3
20260502103303 47 33 0.0 0.0 0.00 0.00 0.00 74 1016.4
20260502101803 48 33 0.0 0.0 0.00 0.00 0.00 74 1016.5
20260502100304 48 33 0.0 0.0 0.00 0.00 0.00 73 1016.4
20260502090803 48 33 0.0 0.0 0.00 0.00 0.00 74 1015.9
20260502071303 50 33 0.0 0.0 0.00 0.00 0.00 67 1016.8
20260502070803 50 33 0.0 0.0 0.00 0.00 0.00 67 1016.9
20260502070304 50 33 0.0 0.0 0.00 0.00 0.00 66 1016.9
20260502065803 50 33 0.0 0.0 0.00 0.00 0.00 67 1016.9
20260502064303 50 33 0.0 0.0 0.00 0.00 0.00 66 1016.9
20260502063803 50 33 0.0 0.0 0.00 0.00 0.00 66 1016.8
20260502060303 51 33 0.0 0.0 0.00 0.00 0.00 63 1017.0
20260502055305 52 33 0.0 0.0 0.00 0.00 0.00 61 1017.1
20260502053804 52 33 0.0 0.0 0.00 0.00 0.00 60 1017.1
20260502053303 53 33 0.0 0.0 0.00 0.00 0.00 60 1017.0
20260502052306 53 33 0.0 0.0 0.00 0.00 0.00 60 1016.9
20260502051803 53 33 0.0 0.0 0.00 0.00 0.00 59 1016.8
20260502050813 53 33 0.0 0.0 0.00 0.00 0.00 57 1016.5
20260502050303 54 33 0.0 0.0 0.00 0.00 0.00 59 1016.5
20260502045803 54 33 0.0 0.0 0.00 0.00 0.00 58 1016.5
20260502044304 54 33 0.0 0.0 0.00 0.00 0.00 58 1016.6
20260502043803 54 33 0.0 0.0 0.00 0.00 0.00 58 1016.6
20260502043303 54 33 0.0 0.0 0.00 0.00 0.00 56 1016.6
20260502042803 54 33 0.0 0.0 0.00 0.00 0.00 57 1016.7
20260502042305 54 33 0.0 0.0 0.00 0.00 0.00 57 1016.7
20260502041303 54 33 0.0 0.0 0.00 0.00 0.00 57 1016.7
20260502040803 55 33 0.0 0.0 0.00 0.00 0.00 55 1016.8
20260502035804 55 33 0.0 0.0 0.00 0.00 0.00 56 1016.9
20260502035306 55 33 0.0 0.0 0.00 0.00 0.00 56 1016.8
20260502034303 55 33 0.0 0.0 0.00 0.00 0.00 54 1017.0
20260502033803 55 33 0.0 0.0 0.00 0.00 0.00 54 1017.0
20260502033304 55 33 0.0 0.0 0.00 0.00 0.00 54 1017.1
20260502031804 55 33 0.0 0.0 0.00 0.00 0.00 54 1017.4
20260502031303 56 33 0.0 0.0 0.00 0.00 0.00 54 1017.5
20260502030804 56 33 0.0 0.0 0.00 0.00 0.00 54 1017.5
20260502025306 56 33 0.0 0.0 0.00 0.00 0.00 53 1017.3
20260502022804 56 33 0.0 0.0 0.00 0.00 0.00 52 1017.0
20260502021304 56 33 0.0 0.0 0.00 0.00 0.00 53 1017.0
20260502020304 56 33 0.0 0.0 0.00 0.00 0.00 46 1016.9
20260502015804 57 33 0.0 0.0 0.00 0.00 0.00 48 1016.8
20260502014303 57 33 0.0 0.0 0.00 0.00 0.00 50 1016.8
20260502013303 57 33 0.0 0.0 0.00 0.00 0.00 49 1016.7
20260502012804 57 33 0.0 0.0 0.00 0.00 0.00 46 1016.5
20260502012306 57 33 0.0 0.0 0.00 0.00 0.00 47 1016.5
20260502011303 58 33 0.0 0.0 0.00 0.00 0.00 46 1016.4
20260502005306 59 33 0.0 0.0 0.00 0.00 0.00 47 1016.2
20260502004803 59 33 0.0 0.0 0.00 0.00 0.00 44 1016.0
20260502002804 60 33 0.0 0.0 0.00 0.00 0.00 43 1015.5